This is the latest recevied weather packets stored in our database for station/object KE5OYL. If no packets are shown the sender has not sent any weather packets the latest 10 day(s).
| Time | Temp. | Humidity | Pressure | Rain* | Wind** | Luminosity | Snow |
|---|---|---|---|---|---|---|---|
| 1777913349 | 23.89° C | 51% | 1013.1 hPa | 0 mm | - | 749 W/m² | - |
| 1777913046 | 23.89° C | 51% | 1013.3 hPa | 0 mm | - | 717 W/m² | - |
| 1777912741 | 23.33° C | 51% | 1013.3 hPa | 0 mm | - | 737 W/m² | - |
| 1777912437 | 22.78° C | 50% | 1013.6 hPa | 0 mm | - | 727 W/m² | - |
| 1777912134 | 22.78° C | 50% | 1013.5 hPa | 0 mm | - | 709 W/m² | - |
| 1777911830 | 22.78° C | 50% | 1013.5 hPa | 0 mm | - | 671 W/m² | - |
| 1777911527 | 22.78° C | 53% | 1013.4 hPa | 0 mm | - | 733 W/m² | - |
| 1777911223 | 22.78° C | 53% | 1013.5 hPa | 0 mm | - | 576 W/m² | - |
| 1777910921 | 22.22° C | 54% | 1013.6 hPa | 0 mm | - | 700 W/m² | - |
| 1777910618 | 22.22° C | 55% | 1013.5 hPa | 0 mm | - | 635 W/m² | - |
| 1777910314 | 22.22° C | 54% | 1013.6 hPa | 0 mm | - | 615 W/m² | - |
| 1777910012 | 21.67° C | 57% | 1013.7 hPa | 0 mm | - | 602 W/m² | - |
| 1777909708 | 21.67° C | 57% | 1013.7 hPa | 0 mm | - | 489 W/m² | - |
| 1777909406 | 21.67° C | 58% | 1013.8 hPa | 0 mm | - | 378 W/m² | - |
| 1777909104 | 21.67° C | 57% | 1013.8 hPa | 0 mm | - | 307 W/m² | - |
| 1777908801 | 21.67° C | 58% | 1014 hPa | 0 mm | - | 590 W/m² | - |
| 1777908498 | 21.67° C | 61% | 1014 hPa | 0 mm | - | 484 W/m² | - |
| 1777908194 | 21.11° C | 62% | 1014.1 hPa | 0 mm | - | 549 W/m² | - |
| 1777907891 | 21.11° C | 62% | 1014.1 hPa | 0 mm | - | 515 W/m² | - |
| 1777907586 | 21.11° C | 62% | 1014 hPa | 0 mm | - | 530 W/m² | - |
| 1777907282 | 20.56° C | 62% | 1014.3 hPa | 0 mm | - | 456 W/m² | - |
| 1777906979 | 21.11° C | 62% | 1014.2 hPa | 0 mm | - | 319 W/m² | - |
| 1777906677 | 20.56° C | 63% | 1014.3 hPa | 0 mm | - | 483 W/m² | - |
| 1777906373 | 20.56° C | 62% | 1014 hPa | 0 mm | - | 465 W/m² | - |
| 1777906070 | 20.56° C | 65% | 1014.1 hPa | 0 mm | - | 495 W/m² | - |
* Rain latest hour (hover to see other rain measurements)
** Current wind speed in m/s (hover to see current wind gust speed)